FW1422 Weather Reports


time (UTC)temp
F
wind
direction
speed
knots
gust
knots
rain 1hr
in
rain 24hr
in
rain mn
in
humidity
%
barometer
mb
20260905204504 93 153 7.8 13.9 0.00 0.00 0.00 47 1010.3
20260905203002 90 155 7.8 13.0 0.00 0.00 0.00 55 1010.6
20260905201601 90 156 10.4 15.6 0.00 0.00 0.00 58 1010.5
20260905200104 95 158 17.4 22.6 0.00 0.00 0.00 48 1010.5
20260905194559 97 155 7.0 13.0 0.00 0.00 0.00 45 1010.4
20260905193058 98 153 7.8 12.2 0.00 0.00 0.00 44 1010.5
20260905191605 99 152 4.3 10.4 0.00 0.00 0.00 42 1010.5
20260905190054 100 147 4.3 10.4 0.00 0.00 0.00 43 1010.5
20260905184557 99 152 5.2 13.0 0.00 0.00 0.00 42 1010.9
20260905183048 98 155 3.5 9.6 0.00 0.00 0.00 43 1011.0
20260905181547 98 151 6.1 12.2 0.00 0.00 0.00 44 1011.2
20260905180058 97 155 6.1 10.4 0.00 0.00 0.00 44 1011.2
20260905174542 98 153 5.2 8.7 0.00 0.00 0.00 42 1011.4
20260905173100 99 150 4.3 9.6 0.00 0.00 0.00 42 1011.4
20260905171636 98 151 2.6 9.6 0.00 0.00 0.00 42 1011.7
20260905170035 98 147 3.5 7.8 0.00 0.00 0.00 44 1011.9
20260905164534 98 150 5.2 10.4 0.00 0.00 0.00 44 1012.1
20260905163030 97 155 1.7 7.8 0.00 0.00 0.00 46 1012.2
20260905161627 97 153 2.6 8.7 0.00 0.00 0.00 46 1012.2
20260905160026 96 149 2.6 7.0 0.00 0.00 0.00 47 1012.4
20260905154523 96 154 0.9 5.2 0.00 0.00 0.00 48 1012.5
20260905153021 95 154 0.9 6.1 0.00 0.00 0.00 49 1012.7
20260905151520 94 148 2.6 6.1 0.00 0.00 0.00 52 1012.5
20260905150012 93 151 1.7 7.0 0.00 0.00 0.00 53 1012.5
20260905144521 92 153 2.6 6.1 0.00 0.00 0.00 55 1012.5
20260905143007 91 156 2.6 4.3 0.00 0.00 0.00 59 1012.6
20260905141505 91 155 0.9 3.5 0.00 0.00 0.00 60 1012.7
20260905140100 89 156 0.0 4.3 0.00 0.00 0.00 63 1012.9
20260905134557 87 152 0.0 0.9 0.00 0.00 0.00 66 1012.9
20260905133058 86 155 0.0 0.9 0.00 0.00 0.00 69 1012.9
20260905131550 85 153 0.0 0.9 0.00 0.00 0.00 73 1013.0
20260905130045 82 159 0.0 0.0 0.00 0.00 0.00 79 1013.0
20260905124542 80 158 0.0 0.0 0.00 0.00 0.00 84 1013.0
20260905123048 79 159 0.0 0.9 0.00 0.00 0.00 83 1012.9
20260905121544 78 158 0.9 1.7 0.00 0.00 0.00 84 1012.9
20260905120034 0 0.0 0.0 0.00 0.00 0.00 1012.7
20260905114531 0 0.0 0.0 0.00 0.00 0.00 1012.6
20260905113026 0 0.0 0.0 0.00 0.00 0.00 1012.4
20260905111521 0 0.0 0.0 0.00 0.00 0.00 1012.5
20260905110018 0 0.0 0.0 0.00 0.00 0.00 1012.3
20260905104513 0 0.0 0.0 0.00 0.00 0.00 1012.3
20260905103011 0 0.0 0.0 0.00 0.00 0.00 1012.3
20260905101504 0 0.0 0.0 0.00 0.00 0.00 1012.4
20260905100122 0 0.0 0.0 0.00 0.00 0.00 1012.3
20260905094556 0 0.0 0.0 0.00 0.00 0.00 1012.2
20260905093052 0 0.0 0.0 0.00 0.00 0.00 1012.1
20260905091557 80 165 2.6 4.3 0.00 0.00 0.00 75 1011.8
20260905090047 80 153 0.9 1.7 0.00 0.00 0.00 77 1011.8
20260905084551 79 153 1.7 3.5 0.00 0.00 0.00 77 1011.8
20260905083105 79 150 0.0 1.7 0.00 0.00 0.00 79 1011.8
20260905081544 77 150 0.0 0.9 0.00 0.00 0.00 83 1012.0
20260905080042 77 156 0.0 0.9 0.00 0.00 0.00 84 1012.1
20260905074543 78 156 0.0 0.9 0.00 0.00 0.00 84 1012.1
20260905073041 78 156 0.9 2.6 0.00 0.00 0.00 81 1012.1
20260905071542 78 157 0.0 0.0 0.00 0.00 0.00 82 1012.1
20260905070040 78 157 0.0 0.9 0.00 0.00 0.00 82 1012.1
20260905064538 78 157 0.0 0.0 0.00 0.00 0.00 82 1012.1
20260905063038 78 157 0.0 1.7 0.00 0.00 0.00 82 1012.2
20260905061541 79 156 0.0 0.0 0.00 0.00 0.00 80 1012.2
20260905060042 80 156 0.9 1.7 0.00 0.00 0.00 78 1012.4
20260905054601 80 155 0.9 1.7 0.00 0.00 0.00 78 1012.5
20260905053032 79 155 0.9 3.5 0.00 0.00 0.00 79 1012.5
20260905051530 78 149 1.7 4.3 0.00 0.00 0.00 82 1012.5
20260905050026 78 153 0.0 0.0 0.00 0.00 0.00 85 1012.4
20260905044524 79 155 0.0 0.0 0.00 0.00 0.00 78 1012.4
20260905043025 78 154 0.9 1.7 0.00 0.00 0.00 80 1012.4
20260905041526 78 153 0.0 0.0 0.00 0.00 0.00 84 1012.5
20260905040023 79 153 0.0 0.0 0.00 0.00 0.00 82 1012.5
20260905034523 79 153 0.0 0.0 0.00 0.00 0.00 81 1012.5
20260905033022 80 153 0.0 0.0 0.00 0.00 0.00 79 1012.5
20260905031522 81 153 0.0 0.0 0.00 0.00 0.00 77 1012.5
20260905030031 80 153 0.0 0.9 0.00 0.00 0.00 77 1012.5
20260905024521 81 153 0.9 1.7 0.00 0.00 0.00 80 1012.4
20260905023020 82 152 1.7 1.7 0.00 0.00 0.00 76 1012.3
20260905021521 83 154 0.0 0.0 0.00 0.00 0.00 74 1012.2
20260905020019 84 155 0.0 0.0 0.00 0.00 0.00 70 1012.2
20260905014518 84 154 0.0 0.0 0.00 0.00 0.00 66 1012.1
20260905013018 85 154 0.0 0.0 0.00 0.00 0.00 66 1011.9
20260905011520 86 154 0.0 0.0 0.00 0.00 0.00 64 1011.8
20260905010019 88 154 0.0 0.0 0.00 0.00 0.00 60 1011.6
20260905004517 89 154 0.0 0.0 0.00 0.00 0.00 56 1011.5
20260905003021 90 153 0.0 0.0 0.00 0.00 0.00 56 1011.5
20260905001515 93 153 0.0 0.0 0.00 0.00 0.00 51 1011.3
20260905000014 96 155 0.0 0.0 0.00 0.00 0.00 45 1011.3
20260904234514 97 153 0.0 2.6 0.00 0.00 0.00 44 1011.3
20260904233013 97 155 0.9 5.2 0.00 0.00 0.00 43 1011.2
20260904231515 98 155 4.3 6.1 0.00 0.00 0.00 42 1011.2
20260904230017 98 152 2.6 5.2 0.00 0.00 0.00 41 1011.2
20260904224512 99 154 5.2 7.0 0.00 0.00 0.00 40 1011.2
20260904223010 98 153 5.2 8.7 0.00 0.00 0.00 41 1011.1
20260904221508 98 148 3.5 7.0 0.00 0.00 0.00 41 1011.1
20260904220007 99 150 6.1 9.6 0.00 0.00 0.00 40 1011.3
20260904214505 100 155 1.7 5.2 0.00 0.00 0.00 40 1011.5
20260904213004 99 153 4.3 8.7 0.00 0.00 0.00 40 1011.5
20260904211506 99 153 5.2 9.6 0.00 0.00 0.00 40 1011.7